| time (UTC) | temp F | wind direction | speed knots | gust knots | rain 1hr in | rain 24hr in | rain mn in | humidity % | barometer mb |
| 20260510205652 | 75 | 202 | 1.7 | 4.3 | 0.00 | 0.00 | 0.00 | 83 | 1013.6 |
| 20260510205152 | 75 | 177 | 1.7 | 3.5 | 0.00 | 0.00 | 0.00 | 83 | 1013.7 |
| 20260510204652 | 75 | 194 | 1.7 | 4.3 | 0.00 | 0.00 | 0.00 | 82 | 1013.6 |
| 20260510204152 | 75 | 169 | 1.7 | 4.3 | 0.00 | 0.00 | 0.00 | 81 | 1013.6 |
| 20260510203652 | 76 | 193 | 1.7 | 3.5 | 0.00 | 0.00 | 0.00 | 81 | 1013.6 |
| 20260510203153 | 76 | 145 | 1.7 | 2.6 | 0.00 | 0.00 | 0.00 | 81 | 1013.6 |
| 20260510202653 | 76 | 167 | 1.7 | 3.5 | 0.00 | 0.00 | 0.00 | 81 | 1013.6 |
| 20260510202153 | 75 | 163 | 1.7 | 4.3 | 0.00 | 0.00 | 0.00 | 82 | 1013.8 |
| 20260510201653 | 75 | 223 | 1.7 | 3.5 | 0.00 | 0.00 | 0.00 | 82 | 1013.8 |
| 20260510201153 | 75 | 188 | 1.7 | 4.3 | 0.00 | 0.00 | 0.00 | 82 | 1013.8 |
| 20260510200653 | 75 | 196 | 0.9 | 3.5 | 0.00 | 0.00 | 0.00 | 80 | 1013.9 |
| 20260510200153 | 75 | 192 | 1.7 | 2.6 | 0.00 | 0.00 | 0.00 | 80 | 1013.8 |
| 20260510195653 | 75 | 189 | 1.7 | 3.5 | 0.00 | 0.00 | 0.00 | 79 | 1013.6 |
| 20260510195153 | 76 | 168 | 1.7 | 4.3 | 0.00 | 0.00 | 0.00 | 79 | 1013.9 |
| 20260510194653 | 76 | 158 | 1.7 | 3.5 | 0.00 | 0.00 | 0.00 | 77 | 1014.0 |
| 20260510194153 | 77 | 180 | 0.9 | 3.5 | 0.00 | 0.00 | 0.00 | 77 | 1014.0 |
| 20260510193653 | 77 | 157 | 0.9 | 4.3 | 0.00 | 0.00 | 0.00 | 76 | 1014.0 |
| 20260510193153 | 78 | 118 | 0.9 | 1.7 | 0.00 | 0.00 | 0.00 | 76 | 1014.1 |
| 20260510192653 | 78 | 108 | 0.9 | 2.6 | 0.00 | 0.00 | 0.00 | 75 | 1014.1 |
| 20260510192153 | 78 | 96 | 1.7 | 3.5 | 0.00 | 0.00 | 0.00 | 76 | 1014.0 |
| 20260510191653 | 78 | 149 | 2.6 | 5.2 | 0.00 | 0.00 | 0.00 | 75 | 1014.0 |
| 20260510191153 | 78 | 131 | 2.6 | 4.3 | 0.00 | 0.00 | 0.00 | 76 | 1014.0 |
| 20260510190653 | 78 | 216 | 1.7 | 6.1 | 0.00 | 0.00 | 0.00 | 77 | 1014.1 |
| 20260510190153 | 78 | 212 | 1.7 | 2.6 | 0.00 | 0.00 | 0.00 | 78 | 1014.0 |
| 20260510185653 | 78 | 294 | 2.6 | 4.3 | 0.00 | 0.00 | 0.00 | 76 | 1014.0 |
| 20260510185153 | 78 | 199 | 2.6 | 5.2 | 0.00 | 0.00 | 0.00 | 77 | 1014.0 |
| 20260510184653 | 78 | 226 | 3.5 | 6.1 | 0.00 | 0.00 | 0.00 | 76 | 1013.9 |
| 20260510184153 | 78 | 198 | 2.6 | 6.1 | 0.00 | 0.00 | 0.00 | 79 | 1013.9 |
| 20260510183653 | 78 | 226 | 2.6 | 5.2 | 0.00 | 0.00 | 0.00 | 79 | 1013.8 |
| 20260510183153 | 78 | 245 | 2.6 | 4.3 | 0.00 | 0.00 | 0.00 | 78 | 1013.8 |
| 20260510182653 | 77 | 201 | 2.6 | 7.0 | 0.00 | 0.00 | 0.00 | 78 | 1013.8 |
| 20260510182153 | 77 | 169 | 1.7 | 5.2 | 0.00 | 0.00 | 0.00 | 81 | 1013.8 |
| 20260510181653 | 77 | 177 | 1.7 | 5.2 | 0.00 | 0.00 | 0.00 | 81 | 1013.8 |
| 20260510181153 | 77 | 179 | 2.6 | 6.1 | 0.00 | 0.00 | 0.00 | 81 | 1013.9 |
| 20260510180653 | 77 | 86 | 2.6 | 6.1 | 0.00 | 0.00 | 0.00 | 81 | 1013.8 |
| 20260510180157 | 76 | 165 | 2.6 | 6.1 | 0.00 | 0.00 | 0.00 | 82 | 1014.0 |
| 20260510175700 | 76 | 185 | 2.6 | 7.0 | 0.00 | 0.00 | 0.00 | 81 | 1014.1 |
| 20260510175153 | 76 | 172 | 2.6 | 5.2 | 0.00 | 0.00 | 0.00 | 82 | 1014.2 |
| 20260510174653 | 76 | 88 | 2.6 | 5.2 | 0.00 | 0.00 | 0.00 | 82 | 1014.2 |
| 20260510174155 | 75 | 124 | 3.5 | 6.1 | 0.00 | 0.00 | 0.00 | 82 | 1014.5 |
| 20260510173653 | 75 | 160 | 2.6 | 5.2 | 0.00 | 0.00 | 0.00 | 84 | 1014.5 |
| 20260510173153 | 75 | 242 | 2.6 | 6.1 | 0.00 | 0.00 | 0.00 | 84 | 1014.6 |
| 20260510172653 | 75 | 173 | 2.6 | 5.2 | 0.00 | 0.00 | 0.00 | 86 | 1014.6 |
| 20260510172153 | 75 | 210 | 1.7 | 7.0 | 0.00 | 0.00 | 0.00 | 84 | 1014.7 |
| 20260510171653 | 76 | 193 | 2.6 | 7.0 | 0.00 | 0.00 | 0.00 | 86 | 1014.5 |
| 20260510171153 | 75 | 158 | 3.5 | 5.2 | 0.00 | 0.00 | 0.00 | 84 | 1014.6 |
| 20260510170653 | 75 | 188 | 2.6 | 5.2 | 0.00 | 0.00 | 0.00 | 84 | 1014.7 |
| 20260510170153 | 74 | 176 | 1.7 | 3.5 | 0.00 | 0.00 | 0.00 | 85 | 1014.6 |
| 20260510165653 | 74 | 203 | 2.6 | 4.3 | 0.00 | 0.00 | 0.00 | 86 | 1014.6 |
| 20260510165153 | 74 | 132 | 1.7 | 7.0 | 0.00 | 0.00 | 0.00 | 87 | 1014.8 |
| 20260510164653 | 74 | 134 | 0.9 | 4.3 | 0.00 | 0.00 | 0.00 | 87 | 1014.9 |
| 20260510164153 | 73 | 203 | 0.9 | 2.6 | 0.00 | 0.00 | 0.00 | 92 | 1014.8 |
| 20260510163653 | 73 | 205 | 0.9 | 1.7 | 0.00 | 0.00 | 0.00 | 91 | 1014.9 |
| 20260510163153 | 72 | 201 | 0.9 | 4.3 | 0.00 | 0.00 | 0.00 | 91 | 1015.0 |
| 20260510162653 | 72 | 233 | 0.9 | 2.6 | 0.00 | 0.00 | 0.00 | 92 | 1015.1 |
| 20260510162153 | 72 | 230 | 1.7 | 4.3 | 0.00 | 0.00 | 0.00 | 93 | 1015.1 |
| 20260510161653 | 72 | 205 | 1.7 | 3.5 | 0.00 | 0.00 | 0.00 | 93 | 1015.0 |
| 20260510161153 | 71 | 210 | 1.7 | 4.3 | 0.00 | 0.00 | 0.00 | 94 | 1014.9 |
| 20260510160653 | 71 | 247 | 0.9 | 1.7 | 0.00 | 0.00 | 0.00 | 94 | 1014.8 |
| 20260510160153 | 70 | 217 | 0.9 | 2.6 | 0.00 | 0.00 | 0.00 | 97 | 1014.7 |
| 20260510153653 | 0 | 767 | 221.6 | 221.6 | 0.00 | 0.00 | 0.00 | ||
| 20260510152653 | 0 | 767 | 221.6 | 221.6 | 0.00 | 0.00 | 0.00 | ||
| 20260510152153 | 68 | 221 | 0.9 | 2.6 | 0.00 | 0.00 | 0.00 | 100 | 1014.4 |
| 20260510151653 | 68 | 221 | 0.9 | 2.6 | 0.00 | 0.00 | 0.00 | 100 | 1014.4 |
| 20260510151153 | 68 | 223 | 0.9 | 2.6 | 0.00 | 0.00 | 0.00 | 100 | 1014.4 |
| 20260510150653 | 67 | 227 | 0.9 | 2.6 | 0.00 | 0.00 | 0.00 | 100 | 1014.5 |
| 20260510150153 | 67 | 227 | 0.9 | 1.7 | 0.00 | 0.00 | 0.00 | 100 | 1014.4 |
| 20260510145653 | 67 | 229 | 0.9 | 2.6 | 0.00 | 0.00 | 0.00 | 100 | 1014.4 |
| 20260510145153 | 67 | 219 | 0.9 | 2.6 | 0.00 | 0.00 | 0.00 | 100 | 1014.5 |
| 20260510144653 | 67 | 219 | 0.9 | 1.7 | 0.00 | 0.00 | 0.00 | 100 | 1014.6 |
| 20260510144153 | 67 | 219 | 0.9 | 2.6 | 0.00 | 0.00 | 0.00 | 100 | 1014.4 |
| 20260510143653 | 66 | 218 | 0.9 | 2.6 | 0.00 | 0.00 | 0.00 | 100 | 1014.3 |
| 20260510143153 | 66 | 216 | 1.7 | 2.6 | 0.00 | 0.00 | 0.00 | 100 | 1014.6 |
| 20260510142653 | 66 | 237 | 1.7 | 2.6 | 0.00 | 0.00 | 0.00 | 100 | 1014.5 |
| 20260510142153 | 66 | 237 | 1.7 | 3.5 | 0.00 | 0.00 | 0.00 | 100 | 1014.5 |
| 20260510141653 | 66 | 221 | 1.7 | 3.5 | 0.00 | 0.00 | 0.00 | 100 | 1014.5 |
| 20260510141248 | 66 | 229 | 0.9 | 3.5 | 0.00 | 0.00 | 0.00 | 100 | 1014.5 |
| 20260510141153 | 66 | 229 | 0.9 | 3.5 | 0.00 | 0.00 | 0.00 | 100 | 1014.5 |
| 20260510140653 | 66 | 236 | 0.9 | 3.5 | 0.00 | 0.00 | 0.00 | 100 | 1014.5 |